Regional Weather Roundup
Issued by NWS

Home | Current Version | Previous Version | Graphics & Text | Print | Product List | Glossary On
Versions: 1 2 3 4 5 6 7 8 9 10 11 12 13 14 15 16 17 18 19 20 21 22 23 24 25 26 27 28 29 30 31 32 33 34 35 36 37 38 39 40 41 42 43 44 45 46 47 48 49 50
000
ASUS43 KLOT 251108
RWRIL

ILLINOIS REGIONAL WEATHER ROUNDUP
NATIONAL WEATHER SERVICE CHICAGO/ROMEOVILLE IL
600 AM CDT TUE APR 25 2017

NOTE: "FAIR" INDICATES FEW OR NO CLOUDS BELOW 12,000 FEET WITH NO
SIGNIFICANT WEATHER AND/OR OBSTRUCTIONS TO VISIBILITY.

* THESE STATIONS ARE NOT UNDER NWS QUALITY CONTROL. THEY ALSO MAY NOT
  REPORT WEATHER SUCH AS PRECIPITATION OR FOG.

ILZ001-002-007-009-015-016-024-251200-
NORTHWEST ILLINOIS

CITY           SKY/WX    TMP DP  RH WIND       PRES   REMARKS
MOLINE         CLEAR     52  36  54 SE6       29.61F
STERLING*      PTCLDY    50  39  66 SE7       29.65F
SAVANNA*       CLEAR     51  35  54 SE5       29.63S
$$

ILZ003-004-008-010-011-017-018-251200-
NORTH CENTRAL ILLINOIS

CITY           SKY/WX    TMP DP  RH WIND       PRES   REMARKS
ROCKFORD       CLOUDY    52  41  66 S7        29.69F
FREEPORT*      MOCLDY    49  39  68 SE8       29.66F
ROCHELLE*      CLOUDY    50  41  72 SE12      29.68S
DE KALB*       PTCLDY    51  44  76 SE9       29.69S
PERU*          PTCLDY    51  37  60 SE6       29.68S
$$

ILZ005-006-012>014-019>023-251200-
NORTHEAST ILLINOIS

CITY           SKY/WX    TMP DP  RH WIND       PRES   REMARKS
CHICAGO-OHARE  MOCLDY    56  47  71 SE10      29.70S
CHICAGO-MIDWAY CLOUDY    57  48  72 SE8       29.72R
AURORA         PTCLDY    51  45  79 SE9       29.69F
LANSING*       PTCLDY    54  50  86 SE7       29.73S
JOLIET*        CLOUDY    54  48  82 SE6       29.71S
WAUKEGAN       PTCLDY    49  44  83 SE10      29.70F
DUPAGE AIRPORT PTCLDY    55  49  80 SE8       29.69S
KANKAKEE*      CLOUDY    50  45  83 CALM      29.74R
WHEELING       CLOUDY    50  45  83 SE5       29.72S
MORRIS*        CLOUDY    52  46  81 CALM      29.69S
ROMEOVILLE*    CLOUDY    54  50  88 SE10      29.71S
NORTHERLY ISL    N/A     55  49  80 SE7         N/A
$$

LMZ740>746-251200-
SOUTHERN LAKE MICHIGAN

STATION/POSITION SKY/WX   TEMP    WIND        PRES    VSBY  WAVE
                          AIR SEA DIR/SP/G                  HT/PER
                          (F)     (DEG/KT/KT) (MB)    (MI)  (FT/S)
SOUTHERN BUOY              46 41  100/ 12/ 12 1007.7          1/ 3
HARRISON CRIB              54     170/ 11/ 14   N/A
BURNHAM HARBOR             55     140/  8       N/A
CALUMET HARBOR             57     150/  8/ 12 1006.1S
BURNS HARBOR               57     140/ 10/ 18 1007.5F
MICHIGAN CITY              56     130/ 14/ 16   N/A
ST. JOSEPH                 53 49  150/ 10/ 14 1008.1          1
$$

ILZ025>027-034>036-040-047-049-050-058-095>099-251200-
WEST-CENTRAL ILLINOIS

CITY           SKY/WX    TMP DP  RH WIND       PRES   REMARKS
QUINCY         CLEAR     56  41  57 S8        29.62F
GALESBURG*     CLOUDY    55  41  58 SE8       29.62F
MACOMB*        CLOUDY    54  42  63 S8        29.64F
JACKSONVILLE*  CLOUDY    58  45  62 S8        29.66F
PITTSFIELD*    CLOUDY    55  46  69 SE7       29.65S
$$

ILZ028>032-037-038-041>044-048-051>054-059>061-251200-
CENTRAL ILLINOIS

CITY           SKY/WX    TMP DP  RH WIND       PRES   REMARKS
PONTIAC        CLOUDY    48  44  84 SE8       29.70F
BLOOMINGTON    CLOUDY    50  38  63 S9        29.71S
DECATUR        MOCLDY    47  40  76 CALM      29.71S
PEORIA         CLOUDY    54  38  54 S6        29.67S
LACON*         CLOUDY    50  37  59 SE7       29.67S
LINCOLN*       MOCLDY    45  37  75 CALM      29.69S
SPRINGFIELD    CLOUDY    56  43  61 S9        29.69S
TAYLORVILLE    CLOUDY    52  42  70 S6        29.70S
$$

ILZ033-039-045-046-055>057-062-063-251200-
EAST-CENTRAL ILLINOIS

CITY           SKY/WX    TMP DP  RH WIND       PRES   REMARKS
CHAMPAIGN      MOCLDY    50  43  77 SE8       29.73S
RANTOUL*       CLOUDY    53  48  83 SE5       29.73R
MATTOON        CLOUDY    50  46  86 S6        29.72F
PARIS*         CLEAR     52  50  92 SE6       29.76R
$$

ILZ079-100>102-251200-
SOUTHWEST ILLINOIS

CITY           SKY/WX    TMP DP  RH WIND       PRES   REMARKS
ALTON          PTCLDY    48  43  84 SE5       29.69F
BELLEVILLE     PTCLDY    48  47  99 CALM      29.69S
CAHOKIA*       CLOUDY    52  45  77 S6        29.69S
SPARTA*        PTCLDY    52  48  86 SE5       29.72S
$$

ILZ064>066-069>071-074>076-080>082-084>086-088>090-092>094-251200-
SOUTH-CENTRAL ILLINOIS

CITY           SKY/WX    TMP DP  RH WIND       PRES   REMARKS
CARBONDALE     PTCLDY    50  50 100 CALM      29.73R
CAIRO*         PTCLDY    56  55  96 S3        29.74R
EFFINGHAM*     CLEAR     46  45  99 CALM      29.74S
MARION         CLOUDY    55  55 100 S3        29.74S
MT. VERNON     CLOUDY    45  44  97 CALM      29.73S
CENTRALIA*     CLOUDY    52  49  87 SE3       29.71F
SALEM*         CLEAR     53  48  83 CALM      29.72F
METROPOLIS*    PTCLDY    54  53  96 CALM      29.75R
$$

ILZ067-068-072-073-078-083-087-091-251200-
SOUTHEAST ILLINOIS

CITY           SKY/WX    TMP DP  RH WIND       PRES   REMARKS
LAWRENCEVILLE  CLEAR     53  51  93 E5        29.76R
FLORA*         CLEAR     48  46  95 CALM      29.74S
FAIRFIELD*     CLEAR     51  50  97 CALM      29.74R
HARRISBURG*    PTCLDY    49  49  99 CALM      29.74S
ROBINSON*      CLEAR     48  47  98 E3        29.76S
CARMI*         CLEAR     50  50  99 CALM      29.74S
$$

ABBREVIATIONS USED IN REMARKS
   TC - TEMPERATURE IN CELSIUS
  WCI - WIND CHILL INDEX
   HX - HEAT INDEX
  VSB - VISIBILITY
$$





USA.gov is the U.S. government's official web portal to all federal, state and local government web resources and services.